Regional Weather Roundup
Issued by NWS

Home | Current Version | Previous Version | Graphics & Text | Print | Product List | Glossary On
Versions: 1 2 3 4 5 6 7 8 9 10 11 12 13 14 15 16 17 18 19 20 21 22 23 24 25 26 27 28 29 30 31 32 33 34 35 36 37 38 39 40 41 42 43 44 45 46 47 48 49 50
000
ASUS45 KBOU 241610
RWRCO

WEATHER ROUNDUP FOR COLORADO
NATIONAL WEATHER SERVICE DENVER/BOULDER CO
900 AM MST FRI NOV 24 2017

NOTE: "FAIR" INDICATES FEW OR NO CLOUDS BELOW 12000 FEET WITH NO
SIGNIFICANT WEATHER AND/OR OBSTRUCTIONS TO VISIBILITY.

COZ001>005-013-030-031-241700-
...NORTHWEST COLORADO...

CITY           SKY/WX    TMP DP  RH WIND       PRES   REMARKS
CRAIG          FAIR      37  33  85 CALM      30.00F
HAYDEN         FAIR      40  33  76 E6        30.02F
MEEKER         FAIR      45  34  65 CALM      30.04S
RABBIT EARS PA PTSUNNY   34  27  75 W6        30.14F WCI  29
STEAMBOAT SPGS FAIR      31  30  96 CALM      30.02F
WALDEN         FAIR      43  25  49 SW20      30.02F
$$

COZ006>008-011-241700-
...WEST CENTRAL VALLEYS...

CITY           SKY/WX    TMP DP  RH WIND       PRES   REMARKS
GRAND JUNCTION FAIR      45  34  65 CALM      30.08R
MONTROSE       FAIR      42  30  62 CALM      30.10F
EAGLE          CLOUDY    36  29  75 CALM      30.10F
RIFLE          FAIR      39  35  86 CALM      30.09S
DELTA          FAIR      45  31  57 CALM      30.09S
NUCLA          FAIR      41  21  45 CALM      30.16F
$$

COZ017>023-064>068-241700-
...SOUTHWEST COLORADO...

CITY           SKY/WX    TMP DP  RH WIND       PRES   REMARKS
DURANGO        FAIR      36  26  67 CALM      30.17S
CORTEZ         FAIR      43  26  51 E3        30.15S
PAGOSA SPRINGS FAIR      41  26  55 CALM      30.20S
TELLURIDE      PTSUNNY   43  17  35 E5        30.25S
WOLF CREEK PAS FAIR      36  12  38 W10       30.39R
$$

COZ009-010-012-014-032>034-037-058>063-241700-
...CENTRAL COLORADO...

CITY           SKY/WX    TMP DP  RH WIND       PRES   REMARKS
ASPEN          PTSUNNY   39  27  62 S5        30.10F
BUENA VISTA    FAIR      54  16  22 W21G28    30.09S
COPPER MTN     PTSUNNY   37  23  56 W22G32    30.25R
BERTHOUD PASS  CLOUDY    30  19  64 W29G55    30.21R WCI  15
COTTONWOOD PAS PTSUNNY   50  18  27 NW10G18   30.16S
GUNNISON       FAIR      26  23  88 CALM      30.21F
KREMMLING      FAIR      46  32  57 E5        30.06S
LEADVILLE      CLOUDY    42  17  36 NW8       30.17R
MONARCH PASS   CLOUDY    34  14  44 W25       30.40R WCI  21
SALIDA         FAIR      59  15  18 NW20G31   30.14R
SUNLIGHT       CLOUDY    36  23  60 SW10G20   30.25S
WILKERSON PASS FAIR      37  16  41 W17G31    30.18R
$$

COZ069>075-241700-
...SAN LUIS VALLEY/SANGRE DE CRISTO MOUNTAINS...

CITY           SKY/WX    TMP DP  RH WIND       PRES   REMARKS
ALAMOSA        FAIR      32  22  66 CALM      30.13F
DEL NORTE      FAIR      39  18  43 E8        30.14S
LA VETA PASS   FAIR      36  18  48 MISG        N/A
SAGUACHE       FAIR      34  23  64 SE3       30.16R
$$

COZ035-036-038>040-241700-
...NORTHERN COLORADO FRONT RANGE...

CITY           SKY/WX    TMP DP  RH WIND       PRES   REMARKS
DENVER INTL AP PTSUNNY   66  25  21 W6        29.85R
DMNS CITY PARK   N/A     62  24  24 S7        29.84F
AURORA         PTSUNNY   64  23  21 S3        29.87R
FRONT RANGE AP PTSUNNY   66  28  24 NW8       29.87R
ERIE MUNI ARPT FAIR      65  21  18 W8G21     29.87S
BOULDER MUN AP FAIR      64  25  22 E7G17     29.81S
CENTENNIAL     FAIR      58  24  27 SE8       29.87R
BROOMFIELD     PTSUNNY   64  25  22 SW6G17    29.85
FORT COLLINS   FAIR      52  32  46 NW8       29.82R
LONGMONT       FAIR      67  25  21 W3        29.83S
$$

COZ041-046-047-076>085-087-088-241700-
...PIKES PEAK/PALMER DIVIDE AND SOUTHERN FOOTHILLS...

CITY           SKY/WX    TMP DP  RH WIND       PRES   REMARKS
COLO. SPRINGS  PTSUNNY   63  14  15 SE3       29.92S
A. F. ACADEMY  FAIR      61  17  18 S3        29.92S
SCHRIEVER AFB  FAIR      64  13  14 NW16G23   29.92S
CHEYENNE MTN   FAIR      56  16  20 NE3       29.90R
ELLICOTT         N/A    N/A N/A N/A NW16G23   29.91R
FALCON         FAIR      61  17  17 W15G22    29.96S
FORT CARSON    FAIR      59  20  22 NW3       29.89S
LIMON          FAIR      58  20  22 NW5       29.86S
MONUMENT HILL  FAIR      57  21  24 W9        29.96R
CANON CITY     FAIR      55  21  26 CALM      29.89F
WALSENBURG     FAIR      66  19  16 W21G26    29.94R
TRINIDAD       FAIR      54  20  26 W10       29.93S
$$

COZ042>045-048>051-090-091-241700-
...NORTHEAST COLORADO...

CITY           SKY/WX    TMP DP  RH WIND       PRES   REMARKS
GREELEY ARPT   FAIR      44  33  65 NE6       29.84R
AKRON          FAIR      57  24  28 W12       29.82R
BURLINGTON     FAIR      64  29  26 W13       29.81R
WRAY           NOT AVBL
YUMA           FAIR      54  30  40 W6        29.80R
STERLING       FAIR      43  32  65 S9        29.79S
HOLYOKE        FAIR      59  32  36 W12       29.78S
FORT MORGAN    FAIR      51  25  36 CALM      29.83R
$$

COZ086-089-092>099-241700-
...SOUTHEAST COLORADO...

CITY           SKY/WX    TMP DP  RH WIND       PRES   REMARKS
PUEBLO         FAIR      52  26  36 W10       29.86R
LA JUNTA       FAIR      59  25  27 NW5       29.83R
LAMAR          FAIR      54  32  43 W6        29.79F
SPRINGFIELD      N/A     69  25  19 NW13      29.81F
$$



USA.gov is the U.S. government's official web portal to all federal, state and local government web resources and services.